TimeCDT,TemperatureF,Dew PointF,Humidity,Sea Level PressureIn,VisibilityMPH,Wind Direction,Wind SpeedMPH,Gust SpeedMPH,PrecipitationIn,Events,Conditions,WindDirDegrees,DateUTC
12:53 AM,80.1,75.9,87,29.83,10.0,NNW,4.6,-,N/A,,Clear,340,2013-08-28 05:53:00
1:53 AM,79.0,75.0,88,29.83,10.0,NNW,5.8,-,N/A,,Clear,340,2013-08-28 06:53:00
2:53 AM,78.1,75.0,90,29.83,9.0,North,8.1,-,N/A,,Clear,350,2013-08-28 07:53:00
3:53 AM,77.0,73.9,90,29.85,7.0,NNW,4.6,-,N/A,,Clear,330,2013-08-28 08:53:00
4:53 AM,75.0,73.0,94,29.87,5.0,NNW,4.6,-,N/A,,Clear,340,2013-08-28 09:53:00
5:53 AM,75.9,73.0,91,29.89,9.0,North,4.6,-,N/A,,Scattered Clouds,10,2013-08-28 10:53:00
6:53 AM,75.0,72.0,90,29.91,10.0,ENE,3.5,-,N/A,,Mostly Cloudy,70,2013-08-28 11:53:00
7:53 AM,77.0,71.1,82,29.93,10.0,ENE,6.9,-,N/A,,Overcast,60,2013-08-28 12:53:00
8:53 AM,77.0,70.0,79,29.95,10.0,East,5.8,-,N/A,,Overcast,90,2013-08-28 13:53:00
9:09 AM,78.8,69.8,74,29.99,10.0,East,5.8,-,N/A,,Overcast,80,2013-08-28 14:09:00
9:53 AM,79.0,70.0,74,29.96,10.0,ENE,5.8,-,N/A,,Overcast,70,2013-08-28 14:53:00
10:53 AM,80.1,70.0,71,29.98,10.0,ENE,6.9,-,N/A,,Overcast,70,2013-08-28 15:53:00
11:53 AM,80.1,69.1,69,29.99,10.0,East,5.8,-,N/A,,Overcast,100,2013-08-28 16:53:00
12:53 PM,82.0,69.1,65,29.97,10.0,ESE,4.6,-,N/A,,Overcast,120,2013-08-28 17:53:00
1:50 PM,84.2,69.8,62,30.00,10.0,ESE,4.6,-,N/A,,Partly Cloudy,110,2013-08-28 18:50:00
1:53 PM,82.9,69.1,63,29.96,10.0,Calm,Calm,-,N/A,,Partly Cloudy,0,2013-08-28 18:53:00
2:53 PM,87.1,69.1,55,29.96,10.0,Variable,4.6,-,N/A,,Clear,0,2013-08-28 19:53:00
3:53 PM,88.0,69.1,53,29.95,10.0,ESE,6.9,-,N/A,,Clear,110,2013-08-28 20:53:00
4:53 PM,89.1,70.0,53,29.95,10.0,Variable,3.5,-,N/A,,Clear,0,2013-08-28 21:53:00
5:53 PM,89.1,70.0,53,29.95,10.0,Variable,5.8,-,N/A,,Clear,0,2013-08-28 22:53:00
6:53 PM,87.1,69.1,55,29.95,10.0,ESE,4.6,-,N/A,,Clear,120,2013-08-28 23:53:00
7:53 PM,84.0,71.1,65,29.97,10.0,East,6.9,-,N/A,,Mostly Cloudy,90,2013-08-29 00:53:00
8:53 PM,81.0,71.1,72,29.96,10.0,ESE,8.1,-,N/A,,Partly Cloudy,110,2013-08-29 01:53:00
9:53 PM,80.1,70.0,71,29.99,10.0,South,8.1,-,N/A,,Clear,170,2013-08-29 02:53:00
10:53 PM,79.0,69.1,72,29.99,10.0,SSE,6.9,-,N/A,,Clear,150,2013-08-29 03:53:00
11:53 PM,77.0,69.1,76,29.99,10.0,SSE,6.9,-,N/A,,Clear,150,2013-08-29 04:53:00